| Temperature (°F) | Max | Average | Min |
|---|---|---|---|
| Max Temperature | 104 | 82.35 | 66 |
| Avg Temperature | 83.82 | 72.26 | 60.67 |
| Min Temperature | 70 | 63.97 | 55 |
| Dew Point (°F) | Max | Average | Min |
|---|---|---|---|
| Dew Point | 73 | 63.26 | 48 |
| Precipitation (in) | Max | Average | Min | Sum |
|---|---|---|---|---|
| Precipitation | 0.00 | 0.00 | 0.00 | 0.00 |
| Snowdepth | 0.00 | 0.00 | 0.00 | 0.00 |
| Wind (mph) | Max | Average | Min |
|---|---|---|---|
| Wind | 32 | 6.4 | 0 |
| Gust Wind | 48 | 0.17 | 0 |
| Sea Level Pressure (in) | Max | Average | Min |
|---|---|---|---|
| Sea Level Pressure | 26.16 | 25.87 | 25.62 |
| Date | Temperature (°F) | Dew Point (°F) | Humidity (%) | Wind Speed (mph) | Pressure (in) | Precipitation (in) | ||||||||||
|---|---|---|---|---|---|---|---|---|---|---|---|---|---|---|---|---|
| Max | Avg | Min | Max | Avg | Min | Max | Avg | Min | Max | Avg | Min | Max | Avg | Min | ||
| 12/31/2023 | 79 | 70.1 | 61 | 66 | 63.4 | 61 | 100 | 80.6 | 57 | 12 | 4.3 | 1 | 26.0 | 25.9 | 25.8 | 0.00 |
| 12/30/2023 | 79 | 68.2 | 63 | 64 | 61.8 | 57 | 100 | 82.2 | 50 | 9 | 5.3 | 1 | 26.1 | 26.0 | 26.0 | 0.00 |
| 12/29/2023 | 75 | 67.9 | 63 | 72 | 65.8 | 63 | 100 | 92.6 | 78 | 15 | 6.2 | 1 | 26.1 | 26.0 | 25.8 | 0.00 |
| 12/28/2023 | 90 | 77.6 | 66 | 70 | 67.3 | 64 | 94 | 72.8 | 49 | 8 | 4.9 | 2 | 25.9 | 25.8 | 25.7 | 0.00 |
| 12/27/2023 | 77 | 70.4 | 66 | 68 | 66.3 | 64 | 100 | 87.3 | 69 | 14 | 4.4 | 0 | 26.1 | 25.9 | 25.8 | 0.00 |
| 12/26/2023 | 73 | 68.1 | 64 | 66 | 64.1 | 63 | 100 | 88.1 | 69 | 9 | 4.2 | 0 | 26.2 | 26.1 | 26.0 | 0.00 |
| 12/25/2023 | 81 | 71.0 | 64 | 70 | 67.0 | 64 | 100 | 88.2 | 65 | 14 | 6.3 | 2 | 26.2 | 26.0 | 25.9 | 0.00 |
| 12/24/2023 | 90 | 79.1 | 70 | 72 | 68.0 | 66 | 94 | 71.0 | 49 | 16 | 6.4 | 0 | 25.9 | 25.9 | 25.8 | 0.00 |
| 12/23/2023 | 84 | 73.9 | 61 | 68 | 64.8 | 59 | 100 | 75.6 | 54 | 12 | 6.2 | 2 | 26.0 | 25.9 | 25.8 | 0.00 |
| 12/22/2023 | 81 | 70.7 | 64 | 66 | 63.8 | 63 | 100 | 80.0 | 57 | 12 | 7.1 | 5 | 26.0 | 25.9 | 25.8 | 0.00 |
| 12/21/2023 | 73 | 67.4 | 63 | 64 | 63.3 | 63 | 100 | 87.0 | 69 | 15 | 7.4 | 2 | 26.0 | 25.9 | 25.9 | 0.00 |
| 12/20/2023 | 73 | 66.4 | 63 | 63 | 61.3 | 59 | 100 | 84.3 | 65 | 12 | 7.0 | 2 | 26.0 | 25.9 | 25.9 | 0.00 |
| 12/19/2023 | 73 | 66.1 | 63 | 66 | 62.7 | 61 | 100 | 89.1 | 69 | 14 | 7.5 | 2 | 26.0 | 25.9 | 25.9 | 0.00 |
| 12/18/2023 | 88 | 72.4 | 66 | 70 | 65.5 | 61 | 100 | 80.9 | 49 | 21 | 7.8 | 1 | 25.9 | 25.8 | 25.8 | 0.00 |
| 12/17/2023 | 104 | 83.8 | 68 | 68 | 62.5 | 48 | 94 | 55.2 | 17 | 16 | 5.7 | 1 | 25.8 | 25.7 | 25.6 | 0.00 |
| 12/16/2023 | 91 | 80.5 | 70 | 68 | 66.1 | 64 | 88 | 63.9 | 41 | 20 | 8.0 | 2 | 25.8 | 25.7 | 25.7 | 0.00 |
| 12/15/2023 | 93 | 80.5 | 68 | 70 | 65.3 | 61 | 100 | 64.8 | 34 | 15 | 6.2 | 1 | 25.8 | 25.7 | 25.7 | 0.00 |
| 12/14/2023 | 84 | 76.0 | 70 | 70 | 68.3 | 68 | 100 | 78.1 | 58 | 18 | 7.5 | 1 | 25.8 | 25.7 | 25.7 | 0.00 |
| 12/13/2023 | 93 | 79.4 | 70 | 73 | 67.2 | 64 | 88 | 69.1 | 38 | 17 | 4.5 | 0 | 25.8 | 25.7 | 25.7 | 0.00 |
| 12/12/2023 | 88 | 76.7 | 64 | 68 | 64.3 | 61 | 94 | 68.0 | 46 | 13 | 4.8 | 0 | 25.9 | 25.8 | 25.7 | 0.00 |
| 12/11/2023 | 81 | 69.2 | 57 | 63 | 58.8 | 55 | 100 | 73.0 | 45 | 15 | 5.6 | 0 | 26.0 | 25.8 | 25.8 | 0.00 |
| 12/10/2023 | 73 | 66.1 | 63 | 66 | 61.6 | 57 | 100 | 85.4 | 73 | 12 | 6.5 | 0 | 26.1 | 26.0 | 25.9 | 0.00 |
| 12/9/2023 | 84 | 73.0 | 59 | 64 | 58.3 | 54 | 82 | 61.5 | 42 | 14 | 6.4 | 0 | 26.0 | 25.9 | 25.8 | 0.00 |
| 12/8/2023 | 82 | 72.8 | 63 | 59 | 54.7 | 50 | 83 | 55.0 | 34 | 13 | 6.0 | 0 | 26.1 | 26.0 | 25.9 | 0.00 |
| 12/7/2023 | 75 | 69.6 | 64 | 64 | 60.6 | 55 | 94 | 74.9 | 50 | 10 | 6.3 | 3 | 26.1 | 26.0 | 25.9 | 0.00 |
| 12/6/2023 | 84 | 71.5 | 63 | 63 | 59.7 | 57 | 88 | 68.5 | 42 | 17 | 7.3 | 1 | 26.0 | 25.9 | 25.8 | 0.00 |
| 12/5/2023 | 72 | 64.3 | 59 | 59 | 58.3 | 57 | 100 | 82.2 | 64 | 14 | 7.4 | 2 | 26.0 | 25.9 | 25.8 | 0.00 |
| 12/4/2023 | 66 | 60.7 | 55 | 61 | 57.0 | 55 | 100 | 89.0 | 68 | 10 | 6.2 | 2 | 26.0 | 26.0 | 25.9 | 0.00 |
| 12/3/2023 | 81 | 70.6 | 61 | 66 | 63.4 | 59 | 100 | 79.2 | 61 | 22 | 8.3 | 2 | 26.0 | 25.9 | 25.8 | 0.00 |
| 12/2/2023 | 93 | 76.5 | 64 | 68 | 65.5 | 63 | 94 | 71.8 | 38 | 32 | 10.2 | 1 | 25.9 | 25.8 | 25.7 | 0.00 |
| 12/1/2023 | 93 | 79.8 | 68 | 68 | 64.6 | 63 | 88 | 63.1 | 36 | 17 | 6.7 | 0 | 25.8 | 25.7 | 25.7 | 0.00 |